[[{"header":{"parameterUnit":"m.s-1","parameterCategory":1,"la1":30.2991,"la2":30.254,"lo1":-89.0895,"lo2":-89.0444,"dy":0.0017,"dx":0.0017,"nx":28,"ny":28,"refTime":"2024-03-27T03:00:00:Z","depth":0,"parameterNumber":2,"parameterNumberName":"U-component_of_WINDS"},"data":[0,0,0,0,0,0,0,0,0,0,0,0,0,0,0,0,0,0,0,0,0,0,0,0,0,0,0,0,0,0,0,0,0,0,0,0,0,0,0,0,0,0,0,0,0,0,0,0,0,0,0,0,0,0,0,0,0,0,0.3181,0.3181,0,0.3255,0.3256,0.3257,0.33,0.33,0.33,0.3301,0.3377,0.3379,0.3381,0,0,0,0,0,0,0,0,0,0,0,0,0,0.3077,0.3078,0.318,0.3181,0.3182,0.3255,0.3256,0.3257,0.33,0.33,0.33,0.3301,0.3377,0.3379,0.3381,0,0,0,0,0,0,0,0,0,0,0,0,0,0.3134,0.3079,0.318,0.3212,0.3216,0.3255,0.3256,0.3258,0.33,0.33,0.33,0.3301,0.3376,0.3379,0.3381,0.3394,0,0,0.339,0.3391,0,0,0,0,0,0,0,0,0.313,0.3137,0.3207,0.321,0.3214,0.3269,0.3248,0.3303,0.33,0.3268,0.3301,0.3301,0.3341,0.3347,0.336,0.3398,0.3401,0.339,0.3392,0.3393,0.3394,0,0,0,0,0,0,0,0.3126,0.3134,0.321,0.3208,0.3212,0.3224,0.3232,0.3259,0.3302,0.3271,0.3274,0.3283,0.3343,0.3357,0.3362,0.3402,0.339,0.3393,0.3395,0.3396,0.3457,0.3457,0,0,0,0,0,0,0.3117,0.3131,0.3208,0.3212,0.3172,0.3226,0.3235,0.3251,0.3302,0.331,0.3282,0.3284,0.3352,0.3359,0.3365,0.3385,0.3393,0.3396,0.3398,0.3457,0.3457,0.3457,0,0,0,0,0,0,0.3115,0.3123,0.3205,0.3173,0.3184,0.3227,0.3245,0.3252,0.3267,0.3311,0.3319,0.3289,0.3353,0.3361,0.3387,0.3388,0.3397,0.34,0.3457,0.3457,0.3457,0.3424,0,0,0,0,0,0,0.3111,0.3122,0.3127,0.3172,0.3185,0.3225,0.3245,0.3254,0.3271,0.3275,0.3319,0.3326,0.3354,0.3383,0.339,0.3392,0.3402,0.3457,0.3457,0.3457,0.3425,0.3423,0.3421,0,0,0,0,0,0.3108,0.3114,0.3127,0.3136,0.3192,0.3225,0.3232,0.3263,0.3271,0.3277,0.3306,0.3325,0.3387,0.3385,0.3394,0.3397,0.3457,0.3457,0.3457,0.3426,0.3423,0.3421,0,0,0,0,0,0,0.3067,0.312,0.3135,0.3156,0.3186,0.3232,0.324,0.3259,0.3287,0.3288,0.3326,0.3336,0.3359,0.3381,0.3377,0.3413,0.3425,0.3426,0.3398,0.3396,0.3393,0.3388,0.3404,0,0,0,0,0,0.3061,0.3082,0.3128,0.3142,0.3157,0.3196,0.3211,0.3233,0.3265,0.3277,0.3308,0.3338,0.3365,0.3382,0.3408,0.3429,0.344,0.3435,0.3433,0.3431,0.3432,0.3447,0.3446,0.3456,0.3456,0.3456,0,0,0.3047,0.3079,0.309,0.3135,0.316,0.3183,0.3206,0.3228,0.3245,0.3281,0.3307,0.3331,0.3368,0.3392,0.3404,0.3411,0.3432,0.3431,0.3429,0.3431,0.3446,0.3445,0.3444,0.3456,0.3456,0.3456,0,0,0.3035,0.3061,0.3076,0.3102,0.314,0.3167,0.317,0.3214,0.3232,0.3259,0.3287,0.3309,0.3353,0.3379,0.3398,0.3398,0.3418,0.3406,0.3394,0.3408,0.3407,0.3407,0.3408,0.3408,0.3407,0.3407,0.3407,0,0.3013,0.3048,0.3082,0.3103,0.3123,0.3157,0.3174,0.3197,0.3242,0.3255,0.3263,0.3321,0.3348,0.3379,0.338,0.3394,0.34,0.3401,0.3404,0.3404,0.3404,0.3406,0.3406,0.3405,0.3405,0.3406,0.3406,0,0.302,0.3044,0.3053,0.3096,0.3117,0.3136,0.3174,0.3191,0.3212,0.3238,0.3267,0.3301,0.3336,0.3346,0.3365,0.3381,0.3384,0.3397,0.3409,0.3401,0.3403,0.3404,0.3403,0.3403,0.3404,0.3404,0,0,0.2982,0.3046,0.3049,0.307,0.3116,0.3136,0.3157,0.3193,0.3207,0.3238,0.3258,0.3296,0.331,0.3331,0.3355,0.3367,0.3367,0.3379,0.3381,0.3377,0.3388,0.3378,0.3378,0.3381,0.3381,0.3381,0.3385,0,0.2977,0.3017,0.305,0.3078,0.3101,0.3135,0.3155,0.3186,0.3211,0.3236,0.3264,0.3291,0.3307,0.332,0.3334,0.3364,0.337,0.3364,0.3401,0.3401,0.339,0.3379,0.3367,0.3369,0.3386,0.3386,0.3386,0,0.2975,0.3006,0.3036,0.3082,0.3094,0.311,0.3146,0.3169,0.3206,0.3224,0.3249,0.3274,0.33,0.331,0.3348,0.3343,0.336,0.3378,0.3379,0.3383,0.3393,0.3383,0.3371,0.3371,0.3388,0.3388,0.3388,0,0.2946,0.2994,0.302,0.3037,0.309,0.3102,0.3125,0.3162,0.3182,0.3214,0.3228,0.3262,0.3281,0.3307,0.3342,0.3346,0.3376,0.3388,0.3392,0.3392,0.3397,0.3396,0.3387,0.3407,0.3407,0.3407,0.3407,0,0.2936,0.2954,0.3007,0.3023,0.3044,0.3082,0.3103,0.3129,0.3163,0.3185,0.3217,0.3237,0.3281,0.3307,0.3334,0.3362,0.337,0.3386,0.3393,0.3383,0.3381,0.3395,0.3396,0.3407,0.3407,0.3407,0.3407,0,0.2906,0.2942,0.2972,0.3022,0.3035,0.3049,0.3092,0.3109,0.3137,0.3165,0.3174,0.3218,0.3251,0.3288,0.3333,0.3352,0.3377,0.3387,0.3365,0.3369,0.3371,0.3371,0.337,0.3373,0.3391,0.3391,0.339,0,0.2897,0.2912,0.2964,0.2981,0.3003,0.3031,0.3052,0.3091,0.3111,0.3156,0.3168,0.3204,0.3234,0.3284,0.3321,0.3356,0.3368,0.3366,0.3373,0.3364,0.3369,0.3368,0.337,0.3363,0.3363,0.3362,0.3362,0,0.2879,0.2897,0.2925,0.2961,0.2986,0.3016,0.3047,0.306,0.3105,0.3127,0.3161,0.3185,0.3232,0.3267,0.3307,0.3332,0.3355,0.336,0.3363,0.3353,0.3339,0.3348,0.3359,0.3359,0.3359,0.336,0.336,0.336,0.286,0.2875,0.2915,0.2946,0.2975,0.3004,0.3023,0.3055,0.3084,0.3125,0.3146,0.3181,0.322,0.3276,0.3301,0.3329,0.3337,0.334,0.3342,0.3342,0.334,0.3335,0.3336,0.3336,0.3337,0.3337,0.3337,0,0.2844,0.2871,0.29,0.2944,0.2969,0.299,0.3026,0.3046,0.3076,0.3111,0.314,0.3181,0.3216,0.3256,0.3294,0.3309,0.3321,0.3318,0.3317,0.3323,0.333,0.3324,0.3308,0.3308,0.3308,0.3308,0.3308,0.3308,0.2838,0.2866,0.2889,0.2932,0.296,0.2993,0.3013,0.3041,0.3069,0.3113,0.3142,0.3169,0.3206,0.3248,0.3281,0.3293,0.3305,0.3299,0.3314,0.332,0.3322,0.3324,0.3319,0.3302,0.3302,0.3304,0.3304,0.3304]},{"header":{"parameterUnit":"m.s-1","parameterCategory":1,"la1":30.2991,"la2":30.254,"lo1":-89.0895,"lo2":-89.0444,"dy":0.0017,"dx":0.0017,"nx":28,"ny":28,"refTime":"2024-03-27T03:00:00:Z","depth":0,"parameterNumber":3,"parameterNumberName":"V-component_of_WINDS"},"data":[0,0,0,0,0,0,0,0,0,0,0,0,0,0,0,0,0,0,0,0,0,0,0,0,0,0,0,0,0,0,0,0,0,0,0,0,0,0,0,0,0,0,0,0,0,0,0,0,0,0,0,0,0,0,0,0,0,0,-5.0688,-5.0687,0,-5.0582,-5.0581,-5.058,-5.0567,-5.0568,-5.0569,-5.057,-5.0453,-5.0449,-5.0445,0,0,0,0,0,0,0,0,0,0,0,0,0,-5.087,-5.0866,-5.0688,-5.0687,-5.0685,-5.0583,-5.0581,-5.058,-5.0567,-5.0568,-5.057,-5.0571,-5.0454,-5.0449,-5.0444,0,0,0,0,0,0,0,0,0,0,0,0,0,-5.078,-5.0865,-5.0688,-5.0667,-5.0664,-5.0583,-5.0581,-5.0579,-5.0567,-5.0568,-5.057,-5.0572,-5.0456,-5.045,-5.0444,-5.0373,0,0,-5.0425,-5.0422,0,0,0,0,0,0,0,0,-5.0785,-5.0773,-5.0671,-5.0668,-5.0665,-5.059,-5.0602,-5.051,-5.0566,-5.0603,-5.0571,-5.0572,-5.0496,-5.0487,-5.0463,-5.0368,-5.0363,-5.0424,-5.042,-5.0418,-5.0416,0,0,0,0,0,0,0,-5.0791,-5.0778,-5.0646,-5.067,-5.0666,-5.066,-5.0649,-5.0584,-5.0542,-5.06,-5.0599,-5.0587,-5.0495,-5.0469,-5.046,-5.0361,-5.0424,-5.0419,-5.0415,-5.0412,-5.0201,-5.0199,0,0,0,0,0,0,-5.0803,-5.0783,-5.0649,-5.0643,-5.073,-5.0655,-5.0643,-5.0612,-5.0543,-5.0534,-5.0586,-5.0587,-5.0479,-5.0468,-5.0456,-5.0368,-5.0418,-5.0412,-5.0408,-5.0203,-5.0201,-5.0199,0,0,0,0,0,0,-5.0807,-5.0791,-5.0653,-5.0712,-5.0695,-5.065,-5.0616,-5.0609,-5.0584,-5.0532,-5.0523,-5.0568,-5.048,-5.0465,-5.0394,-5.0364,-5.0409,-5.0403,-5.0205,-5.0202,-5.02,-5.0192,0,0,0,0,0,0,-5.0812,-5.0792,-5.0767,-5.0712,-5.0692,-5.0596,-5.0614,-5.0606,-5.0574,-5.0575,-5.0513,-5.0504,-5.048,-5.0404,-5.0388,-5.0356,-5.0399,-5.0208,-5.0204,-5.0201,-5.0195,-5.019,-5.0185,0,0,0,0,0,-5.0819,-5.0767,-5.0766,-5.075,-5.066,-5.0594,-5.0582,-5.0558,-5.0572,-5.0545,-5.0512,-5.0506,-5.0371,-5.0397,-5.0379,-5.0345,-5.0209,-5.0205,-5.0201,-5.0197,-5.0191,-5.0185,0,0,0,0,0,0,-5.0816,-5.076,-5.0757,-5.0688,-5.0646,-5.0592,-5.0557,-5.0552,-5.0503,-5.0505,-5.0474,-5.046,-5.039,-5.0361,-5.0391,-5.0273,-5.0291,-5.0283,-5.0294,-5.0288,-5.0283,-5.029,-5.0393,0,0,0,0,0,-5.0808,-5.0763,-5.0715,-5.0658,-5.0637,-5.0601,-5.0572,-5.0557,-5.0512,-5.0493,-5.0454,-5.0408,-5.0355,-5.032,-5.0268,-5.0192,-5.0177,-5.0159,-5.0155,-5.0151,-5.0143,-5.0099,-5.009,-5.0185,-5.0185,-5.0185,0,0,-5.0789,-5.0753,-5.0726,-5.0656,-5.0622,-5.0573,-5.0586,-5.0533,-5.0496,-5.0484,-5.0415,-5.0386,-5.0331,-5.0258,-5.0223,-5.0231,-5.0114,-5.0145,-5.0143,-5.0137,-5.0093,-5.0085,-5.0077,-5.0182,-5.0182,-5.0183,0,0,-5.073,-5.07,-5.0648,-5.0615,-5.0566,-5.0542,-5.053,-5.0477,-5.0458,-5.039,-5.038,-5.0333,-5.0243,-5.0204,-5.0173,-5.0101,-5.0094,-5.0085,-5.0057,-5.0015,-5.0007,-5.0001,-4.9973,-4.9963,-5.0078,-5.0078,-5.0078,0,-5.0712,-5.0641,-5.0622,-5.057,-5.0539,-5.053,-5.0476,-5.0444,-5.0378,-5.0355,-5.0366,-5.0253,-5.0215,-5.0132,-5.0115,-5.009,-5.0073,-5.009,-5.0011,-5.0004,-4.9997,-4.997,-4.996,-5.0078,-5.0078,-5.0078,-5.0078,0,-5.0621,-5.0572,-5.0536,-5.0476,-5.0441,-5.0389,-5.0359,-5.0325,-5.0314,-5.0289,-5.0218,-5.0174,-5.0113,-5.0093,-5.008,-5.0007,-5.0013,-5.0018,-5.0035,-4.9987,-4.9961,-4.9951,-5.0076,-5.0077,-5.0077,-5.0077,0,0,-5.0554,-5.0487,-5.0474,-5.0447,-5.0392,-5.0352,-5.0298,-5.0242,-5.0213,-5.0168,-5.012,-5.0045,-5.005,-5.0014,-4.9997,-4.996,-4.9904,-4.9969,-4.9967,-4.9956,-4.9818,-4.9813,-4.9802,-4.9901,-4.9898,-4.9897,-4.9822,0,-5.0487,-5.0395,-5.0376,-5.0295,-5.0248,-5.024,-5.0193,-5.0152,-5.0128,-5.0082,-5.0053,-5.0,-5.0011,-4.9989,-4.9953,-4.9919,-4.9875,-4.9924,-4.9852,-4.9849,-4.9863,-4.9789,-4.9783,-4.9714,-4.9812,-4.981,-4.9809,0,-5.0395,-5.0352,-5.0267,-5.022,-5.0199,-5.0158,-5.0104,-5.0062,-5.0016,-5.0,-4.9962,-4.9949,-4.989,-4.9913,-4.983,-4.9864,-4.9833,-4.9812,-4.9809,-4.9798,-4.9824,-4.9773,-4.9692,-4.9681,-4.9793,-4.9795,-4.9796,0,-5.0352,-5.0273,-5.0212,-5.0189,-5.0133,-5.0103,-5.0078,-5.0034,-5.0001,-4.9954,-4.9932,-4.9877,-4.9846,-4.9803,-4.9775,-4.9795,-4.9693,-4.9714,-4.9675,-4.9676,-4.9651,-4.9653,-4.9561,-4.9637,-4.9637,-4.9637,-4.9637,0,-5.0277,-5.0225,-5.0192,-5.0154,-5.0095,-5.0074,-5.0014,-4.9988,-4.9949,-4.9903,-4.9893,-4.985,-4.9817,-4.9768,-4.9746,-4.9679,-4.9666,-4.9649,-4.9643,-4.9648,-4.965,-4.9625,-4.9628,-4.9634,-4.9635,-4.9636,-4.9636,0,-5.0218,-5.0194,-5.0127,-5.008,-5.0067,-5.0025,-4.9983,-4.9944,-4.9921,-4.9864,-4.9849,-4.981,-4.9753,-4.9722,-4.9649,-4.9634,-4.9558,-4.9556,-4.9574,-4.9571,-4.9533,-4.9536,-4.942,-4.9402,-4.9493,-4.9492,-4.9491,0,-5.017,-5.013,-5.0081,-5.0052,-5.0026,-4.9979,-4.9947,-4.9924,-4.9891,-4.9836,-4.9803,-4.9746,-4.9698,-4.9606,-4.9569,-4.9513,-4.9508,-4.9471,-4.9499,-4.9505,-4.9504,-4.9505,-4.95,-4.9465,-4.9464,-4.9463,-4.9463,0,-5.0087,-5.0078,-5.0034,-4.9986,-4.9949,-4.9909,-4.9869,-4.9845,-4.9816,-4.9778,-4.9721,-4.9685,-4.9612,-4.9554,-4.9496,-4.9465,-4.9457,-4.9455,-4.9443,-4.9446,-4.9457,-4.9448,-4.9558,-4.9457,-4.9457,-4.9458,-4.9458,-4.9458,-5.003,-4.9994,-4.9954,-4.9905,-4.9874,-4.9838,-4.9799,-4.9773,-4.9726,-4.9667,-4.9657,-4.9595,-4.9549,-4.947,-4.9439,-4.9389,-4.9395,-4.9378,-4.9373,-4.9368,-4.9365,-4.9469,-4.9378,-4.9378,-4.9378,-4.9378,-4.9378,0,-4.9945,-4.992,-4.9875,-4.9822,-4.9783,-4.9785,-4.9741,-4.9707,-4.9655,-4.9614,-4.9569,-4.9503,-4.9447,-4.9408,-4.935,-4.9317,-4.9312,-4.9302,-4.9303,-4.9295,-4.9364,-4.9379,-4.9307,-4.9307,-4.9307,-4.9308,-4.9308,-4.9308,-4.9895,-4.9834,-4.9821,-4.9743,-4.9717,-4.9661,-4.9635,-4.9601,-4.9568,-4.9496,-4.9451,-4.9428,-4.9386,-4.9326,-4.9274,-4.9263,-4.9241,-4.9231,-4.922,-4.9283,-4.9291,-4.9298,-4.9312,-4.9227,-4.9227,-4.9155,-4.9155,-4.9154]}]]